Location: Dunedin
(45.8670°S, 170.5000°E)
Time: 03:06:16
(UTC+13:00)

Cosmos 2333 Rocket - Pass Details

Date: 24 January 2019
Orbit: 840 x 862 km, 70.8° (Epoch: 17 February)

Event Time Altitude Azimuth Distance (km) Brightness Sun altitude
Exits shadow 23:35:01 30° 44° (NE) 1,500 2.9 -18.1°
Maximum altitude 23:36:31 35° 75° (ENE) 1,371 2.9 -18.2°
Drops below altitude 10° 23:41:44 10° 138° (SE) 2,528 4.9 -18.7°
Sets 23:44:24 0° 146° (SE) 3,469 5.7 -19.0°
